Location: Champignolles
(47.0543°N, 4.5663°E)
Time: 07:48:39
(UTC+00:00)

ISS - Pass Details

Date: 04 December 2021
Orbit: 413 x 422 km, 51.6° (Epoch: 27 January)

Event Time Altitude Azimuth Distance (km) Brightness Sun altitude
Rises 16:45:35 0° 293° (WNW) 2,389 0.8 -8.7°
Reaches altitude 10° 16:47:44 10° 298° (WNW) 1,520 -0.4 -9.0°
Maximum altitude 16:51:05 54° 17° (NNE) 524 -3.5 -9.5°
Enters shadow 16:54:08 12° 95° (E) 1,393 -1.7 -10.0°
